WGS F6 (USA 244)

Last updated on Sun Apr 12 2026 00:02:53 GMT+0000 (Coordinated Universal Time)

1 39222U 13041A 26101.13738880 .00000000 00000+0 00000+0 0 9993 2 39222 0.0153 194.5185 0000106 256.3465 22.7675 1.00270989 45396
UTC large
Height (km)
Speed (km/s)
/
Latitude / Longitude
Inclination (degrees)
Orbital Period (minutes)
Azimuth
Elevation
Range (km)
Doppler Factor

Next 0 passes for location: London (51.5072 / 0.1276)

Sorry there are no passes over London.
WGS F6 (USA 244)